Terug naar catalogus

STARLINK-34194

ActiefCommunicatieVLEO
NORAD 64179·PAYLOAD·🇺🇸 United States

Gelanceerd May 28, 2025 vanaf Cape Canaveral Space Force Station

Loading…

Volgende Passages (komende 24 uur)

TLE

VersSource: CelesTrak SupGP

Epoch: Sep 15, 2026, 02:51 UTC

1 64179C 25113K   26258.11923611  .00006713  00000+0  19828-3 0  2581
2 64179  53.1589 286.7814 0001324  91.6317 161.7947 15.34393225    16

Volg STARLINK-34194 in realtime met AllMySat

Download on the App Store